Regional Weather Roundup
Issued by NWS

Home | Current Version | Previous Version | Text Only | Print | Product List | Glossary Off
Versions: 1 2 3 4 5 6 7 8 9 10 11 12 13 14 15 16 17 18 19 20 21 22 23 24 25 26 27

000
ASUS45 KCYS 291610
RWRWY

WYOMING REGIONAL WEATHER ROUNDUP
NATIONAL WEATHER SERVICE CHEYENNE WY
1000 AM MDT FRI JUL 29 2016

NOTE:  "FAIR" INDICATES FEW OR NO CLOUDS BELOW 12,000 FEET
WITH NO SIGNIFICANT WEATHER AND/OR OBSTRUCTIONS TO VISIBILITY.

WYZ001-291700-
YELLOWSTONE NATIONAL PARK

CITY           SKY/WX    TMP DP  RH WIND       PRES   REMARKS
LK YELLOWSTONE   N/A     59  47  64 E3        30.35S
W YELLOWSTONE  NOT AVBL

$$
WYZ002>013-054>058-071-098>099-291700-
NORTHERN WYOMING

CITY           SKY/WX    TMP DP  RH WIND       PRES   REMARKS
JACKSON        SUNNY     63  41  45 CALM      30.26F
CODY           PTSUNNY   72  52  49 CALM      30.16F
GREYBULL       FAIR      74  49  41 CALM      30.09F
WORLAND        FAIR      77  51  40 N5        30.10F
SHERIDAN       FAIR      73  52  47 CALM      30.11F
BUFFALO        FAIR      74  48  39 VRB3      30.16S
GILLETTE       FAIR      73  56  54 CALM      30.13S
HULETT         FAIR      72  55  56 S3        30.15S
NEWCASTLE      FAIR      70  52  52 SE7       30.15F

$$
WYZ014>020-022>026-101>103-291700-
CENTRAL WYOMING

CITY           SKY/WX    TMP DP  RH WIND       PRES   REMARKS
BIG PINEY      FAIR      68  45  43 S5        30.30F
PINEDALE       FAIR      68  41  37 CALM      30.32F
DUBOIS         FAIR      64  43  45 NW3       30.29F
LANDER         FAIR      72  50  45 N7        30.19F
RIVERTON       FAIR      72  50  45 CALM      30.19F
CASPER         FAIR      74  53  48 S6        30.17F
DOUGLAS          N/A    N/A N/A N/A MISG      30.16F

$$
WYZ021-027>030-104>119-291700-
SOUTHERN WYOMING

CITY           SKY/WX    TMP DP  RH WIND       PRES   REMARKS
EVANSTON       FAIR      74  32  21 SW9       30.30S
KEMMERER         N/A     70  41  35 E3        30.30F
FORT BRIDGER   FAIR      70  37  29 W5        30.31F
ROCK SPRINGS   FAIR      70  46  42 SE3       30.26F
DIXON          FAIR      69  42  37 CALM      30.28F
RAWLINS        FAIR      70  50  49 CALM      30.27F
SARATOGA       FAIR      72  52  49 E8        30.29F
LARAMIE        FAIR      67  53  61 VRB3      30.30S
CHEYENNE       FAIR      70  55  59 S8        30.23F
TORRINGTON     FAIR      73  60  63 SE8       30.13F
PINE BLUFFS    FAIR      70  54  56 S8        30.22S

$$




USA.gov is the U.S. government's official web portal to all federal, state and local government web resources and services.